Location: Albany
(35.0170°S, 117.8920°E)
Time: 09:08:09
(UTC+08:00)

S-56A Canister/Altair - Pass Details

Date: 24 January 2021
Orbit: 632 x 2501 km, 38.9° (Epoch: 25 February)

Event Time Altitude Azimuth Distance (km) Brightness Sun altitude
Rises 15:46:58 0° 274° (W) 5,925 12.9 42.0°
Reaches altitude 10° 15:50:41 10° 272° (W) 5,042 12.9 41.2°
Maximum altitude 16:05:55 77° 185° (S) 2,523 10.8 38.1°
Drops below altitude 10° 16:19:41 10° 99° (E) 4,607 11.1 35.3°
Sets 16:22:55 0° 97° (E) 5,409 11.3 34.6°
